STARLINK-6155, 57076

Orbit data source: Space-Track

STARLINK-6155, 57076 is a payload satellite owned by SpaceX/Seattle (US) in LEO that was launched on Thu, 22 Jun 2023 UTC via an FALCON 9 launch vehicle from the Air Force Western Test Range (AFWTR). Payload-class satellites include a variety of spacecraft equipped with specific instruments for various scientific and technological missions. These include communications satellites like Starlink; space stations such as the ISS; scientific satellites like the Hubble; Earth observation satellites from companies like Planet Labs, Umbra, and HawkEye 360; GPS; miniature CubeSats for education and research; and military/defense satellites.

Loading next visibility...
Identifier
57076, 2023-088AE
Orbit
LEO
Country
Flag of USUS
Related business
Manufacturer
SpaceX/Seattle
Mission
Operational Commercial Communications
Bus & Motor
STARLINK, Unknown motor
Mass
305 kg wet, ~290 kg dry
Launch date (UTC)
Icon of a cake. It is the launch day of the satellite!2023-06-22 (3 years ago)
Launch vehicle
FALCON 9
Launch site
Air Force Western Test Range (AFWTR)
Object type
Payload
Rocket body
Debris
Shape & HBR
Box + 1 Pan, 10.1 m
Radar Cross Section
11.087 m², Large (>1 m²)

Expand to show TLE details & history
Last TLE update: 2 days ago

TLE from 2 days ago
0 STARLINK-6155
1 57076U 23088AE  26171.25434794  .00001062  00000-0  48119-4 0  9997
2 57076  43.0010 237.1246 0001578 262.3965  97.6707 15.27580008166010
Epoch: 2026-06-20T06:06Z
TLE epoch observation values (Epoch: 2026-06-20T06:06:15.662Z)
Latitude
-0.00003°
Longitude
-122.9123°
Altitude
482.969 km
Speed
7.626 km/s
True Right ascension
15h 48m 29s
True Declination
0° 00' 00"
Sunlit
Object was in full shadow at epoch
Visualization orbit readout
Latitude
Unknown
Longitude
Unknown
Altitude
Unknown
Speed
Unknown
Apparent Right ascension
Unknown
Apparent Declination
Unknown
Sunlit
N/A
Visualization observer readout
Local Sidereal Time
21:42:45
Azimuth
Unknown
Elevation
Unknown
Doppler factor
Unknown
Orbital elements
Apogee altitude
486.077 km
Perigee altitude
483.911 km
Semi-major axis
6,863.131 km
Eccentricity
0.00016
Inclination
43.001°
RAAN
237.1246°
Arg. of periapsis
262.3965°
True anomaly
97.68862°
Mean anomaly
97.6707°
Eccentric anomaly
97.67966°
Mean motion
3.81733 °/min
Orbital period
94.31 mins
BSTAR
0.000048119
Loading maneuver chart data...
Computing Atmospheric mass density...
Loading historical data...
Loading historical data...
Loading historical data...
Loading historical data...
Loading historical data...
Loading historical data...
Loading historical data...

Documentation

Showing up to 5 results
|